Location: Cardiff
(53.7833°N, 113.6000°W)
Time: 15:55:04
(UTC+00:00)

RS-15 - Pass Details

Date: 12 December 2023
Orbit: 1893 x 2151 km, 64.8° (Epoch: 27 February)

Event Time Altitude Azimuth Distance (km) Brightness Sun altitude
Rises 06:43:03 0° 273° (W) 5,614 10.6 -58.1°
Reaches altitude 10° 06:46:45 10° 280° (W) 4,585 10.1 -58.3°
Enters shadow 06:50:02 21° 288° (WNW) 3,727 9.5 -58.5°
Exits shadow 07:10:57 - 72° (ENE) 4,872 10.2 -59.1°
Sets 07:12:39 0° 74° (ENE) 5,354 10.4 -59.1°
